GPS BIIF-9

Last updated on Sat Apr 13 2024 01:02:27 GMT+0100 (British Summer Time)

1 40534U 15013A 24102.82891448 .00000003 00000+0 00000+0 0 9990 2 40534 53.3702 237.1469 0087373 29.7557 330.7052 2.00569427 65852
UTC large
Height (km)
Speed (km/s)
/
Latitude / Longitude
Inclination (degrees)
Orbital Period (minutes)
Azimuth
Elevation
Range (km)
Doppler Factor

Next 0 passes for location: London (51.5072 / 0.1276)

Sorry there are no passes over London.